Location: Agadir Mansour Mhndou
(31.2424°N, 8.7730°W)
Time: 20:04:36
(UTC+00:00)

Cosmos 1980 Rocket - Pass Details

Date: 16 October 2021
Orbit: 828 x 851 km, 71.0° (Epoch: 08 December)

Event Time Altitude Azimuth Distance (km) Brightness Sun altitude
Rises 18:53:39 0° 204° (SSW) 3,365 5.7 -11.8°
Reaches altitude 10° 18:56:05 10° 207° (SSW) 2,438 5.0 -12.3°
Maximum altitude 19:01:39 71° 291° (WNW) 888 2.5 -13.5°
Drops below altitude 10° 19:07:18 10° 15° (NNE) 2,466 4.5 -14.7°
Sets 19:09:47 0° 18° (NNE) 3,407 5.2 -15.2°
